STARLINK-1109 (44945 NORAD) Tracking and Keplerian Element Data

This shows tracking and keplerian element data for the satellite.

Feedback or suggestion? Click here.




ElementValue
Catalog44945
NameSTARLINK-1109
Epoch Orbit728
Epoch Day53.25001157
Epoch Year2020
RAAN167.2241
Inclination52.9959
Eccentricity0.0001457
Argument of Perigee20.5952
Mean Anonmoly95.9981
Mean Motion15.73143549
Decay Rate0.00227308
L11 44945U 20001AH 20053.25001157 .00227308 00000-0 15840-2 0 9992
L22 44945 52.9959 167.2241 0001457 20.5952 95.9981 15.73143549 7280

Live tracking and technical data element details for STARLINK-1109 (NORAD 44945). STARLINK-1109 can be tracked NOW for your location showing map with azimuth and elevation plus other details from your city location.

Track the satellite on the map from your city or location and see movement details for azimuth, elevation, latitude, longitude, range, height, and movement on the map or in text.







IsCatalogInMostPopularTable: catalog: 44945, numindb: 16
Update: records affected: 1



GetName: 44945 STARLINK-1109

Hit Count: updated at: Mon, 24 Feb 2020 16:49:01 GMT